Zurück zum Katalog

COSMOS 2251 DEB

AktivLEO
NORAD 40230·DEBRIS·🇷🇺 Russia

Gestartet Jun 16, 1993 von Plesetsk Cosmodrome

Loading…

Nächste Überflüge (nächste 24 Stunden)

TLE

AlterndSource: Space-Track

Epoche: Sep 11, 2026, 11:56 UTC

1 40230U 93036BVK 26254.49739152  .00001380  00000-0  35833-3 0  9996
2 40230  74.0422  74.8968 0016777  67.1991 323.0118 14.50593544629255

Verfolge COSMOS 2251 DEB in Echtzeit mit AllMySat

Download on the App Store